Flag for Canada Weather past 2 weeks in Halifax, Nova Scotia, Canada

Now
50 °F

Fog.


Feels Like: 49 °F
Forecast: 50 / 65 °F
Wind: 3 mph from South

Location: Halifax International Airport

Current Time: May 30, 2015 at 5:59:02 AM

Latest Report: May 30, 2015 at 5:00 AM


Visibility: 0 mi

Pressure: 30.22 "Hg

Humidity: 100%

Dew point: 50 °F

Location of HalifaxLocation

Historic Weather in Halifax — Graph

°F

Halifax temperature yesterday

Maximum temperature yesterday: 73 °F (at 1:00 PM)
Minimum temperature yesterday: 54 °F (at 3:00 AM)
Average temperature yesterday: 64 °F

Past Weeks' High & Low Weather Summary

 TemperatureHumidityPressure
High79 °F (May 25, 1:00 PM)100% (May 17, 1:00 AM)30.33 "Hg (May 17, 1:00 AM)
Low37 °F (May 24, 4:00 AM)22% (May 15, 3:00 PM)29.48 "Hg (May 20, 4:51 PM)
Average55 °F69%30.07 "Hg
* Reported May 15 4:00 AM — May 30 4:00 AM, Halifax, Weather by CustomWeather, © 2015

Note: Actual official high and low records may vary slightly from our data, if they occured in-between our weather recording intervals... More about our weather records

Advertising

Halifax weather history for previous 24 hours

 ConditionsComfort  
Time TempWeatherWind HumidityBarometerVisibility
4:00 AM
Sat, May 30
50 °FFog.7 mph100%30.22 "Hg0 mi
3:00 AM50 °FFog.7 mph100%30.22 "Hg0 mi
2:00 AM52 °FFog.6 mph100%30.24 "Hg0 mi
1:00 AM55 °FFog.7 mph100%30.25 "Hg0 mi
12:00 AM55 °FFog.10 mph100%30.26 "Hg1 mi
11:00 PM
Fri, May 29
57 °FPassing clouds.12 mph100%30.26 "Hg8 mi
10:00 PM61 °FPassing clouds.13 mph88%30.27 "Hg15 mi
9:00 PM63 °FScattered clouds.10 mph88%30.27 "Hg15 mi
8:00 PM68 °FScattered clouds.8 mph73%30.27 "Hg15 mi
7:00 PM72 °FScattered clouds.9 mph65%30.25 "Hg15 mi
6:00 PM72 °FPartly sunny.8 mph73%30.25 "Hg15 mi
5:00 PM72 °FPartly sunny.7 mph69%30.26 "Hg15 mi
4:00 PM72 °FPartly sunny.7 mph69%30.25 "Hg15 mi
3:00 PM73 °FPartly sunny.7 mph61%30.26 "Hg15 mi
2:00 PM73 °FPartly sunny.7 mph61%30.25 "Hg15 mi
1:00 PM73 °FPartly sunny.8 mph65%30.25 "Hg15 mi
12:00 PM70 °FScattered clouds.10 mph69%30.27 "Hg15 mi
11:00 AM68 °FPassing clouds.8 mph73%30.27 "Hg15 mi
10:00 AM63 °FPartly sunny.8 mph88%30.26 "Hg15 mi
9:00 AM59 °FMostly cloudy.7 mph100%30.24 "Hg12 mi
8:00 AM57 °FFog.9 mph94%30.22 "Hg0 mi
7:00 AM57 °FFog.7 mph94%30.20 "Hg0 mi
6:00 AM57 °FFog.6 mph94%30.18 "Hg0 mi
5:00 AM55 °FFog.6 mph100%30.17 "Hg0 mi
Weather by CustomWeather, © 2015

See weather overviewHow to use our weather pages